Other Public Products
Issued by NWS Grand Forks, ND

Home | Current Version | Previous Version | Graphics & Text | Print | Product List | Glossary On
Versions: 1 2 3 4 5 6 7 8 9 10 11 12 13 14 15 16 17 18 19 20 21 22 23 24 25 26 27 28 29 30 31 32 33 34 35 36 37 38 39 40 41 42 43 44 45 46 47 48 49 50
000
FPUS83 KFGF 040431
OPUFGF
PRAIRIE TO PINES WEATHER ROUNDUP
NATIONAL WEATHER SERVICE EASTERN NORTH DAKOTA/GRAND FORKS ND
1000 PM CST TUE MAR 03 2015

 **SATELLITE DATA USED TO AUGMENT SKY COVER AT AUTOMATED STATIONS**
 *****  WEATHER ACROSS EASTERN NORTH DAKOTA  *****

CITY           SKY/WX    TMP DP  RH WIND       PRES   REMARKS
GRAND FORKS    PTCLDY    -1  -8  72 W8        30.02R WCI -15
GRAND FORKS AF CLEAR      0  -9  65 NW12      30.01R WCI -17
GRAND CITY NWS   N/A      0 N/A N/A W7          N/A  WCI -13
BUXTON         NOT AVBL
DEVILS LAKE    CLEAR     -2 -11  65 W18       29.98R WCI -24
FARGO          CLEAR      2  -7  66 NW10      30.05R WCI -14
WAHPETON ARPT  CLEAR      3  -6  66 NW13      30.07S WCI -14
$$

 *****  WEATHER ACROSS CENTRAL AND WESTERN NORTH DAKOTA  *****

CITY           SKY/WX    TMP DP  RH WIND       PRES   REMARKS
JAMESTOWN      CLEAR      0  -8  69 W13       30.02R WCI -18
BISMARCK       CLEAR      3  -5  69 NW6       30.07R WCI  -8
MINOT          PTCLDY    -2 -11  65 SW7       29.98S WCI -15
MINOT AFB      PTCLDY    -3 -10  70 W12       29.98S WCI -21
GARRISON         N/A     -7 -13  75 W8        29.99F WCI -23
WILLISTON      PTCLDY     4  -4  69 N18G25    30.04R WCI -16
DICKINSON      MOCLDY     2  -6  69 W8        29.95S WCI -12
HETTINGER      CLEAR      0  -8  69 W6        30.00S WCI -12
$$

 *****  OTHER OBSERVATIONS NORTHEAST NORTH DAKOTA  *****

CITY           SKY/WX    TMP DP  RH WIND       PRES   REMARKS
WALHALLA         N/A      0  -9  65 NW15G21   29.98S WCI -20
LANGDON        NOT AVBL
CAVALIER       FAIR       0  -8  71 W12       29.99R WCI -18
GRAFTON        NOT AVBL
CANDO          FAIR      -4  -9  77 W14       29.99R WCI -24
FORT TOTTEN    NOT AVBL
ROLLA          FAIR      -4 N/A N/A NW15G21   29.94R WCI -25
RUGBY          FAIR      -6 -11  77 W10       30.00R WCI -23
 ***** THE ABOVE OBSERVATIONS ARE NON NWS ARE NOT QUALITY
        CONTROLLED AND MAY MIS-REPORT RAIN FOR SNOW...
$$

 *****  OTHER OBSERVATIONS SOUTHEAST NORTH DAKOTA *****

CITY           SKY/WX    TMP DP  RH WIND       PRES   REMARKS
COOPERSTOWN    NOT AVBL
VALLEY CITY    FAIR       0  -8  71 NW17      30.02R WCI -21
OAKES            N/A      1  -4  78 NW16      30.08R WCI -18
GWINNER        CLEAR      5  -6  61 W12       30.07R WCI -11
SHEYENNE NWR     N/A     -1  -9  68 W7        29.95  WCI -14
BUFFALO        NOT AVBL
WYNDMERE       NOT AVBL
 ***** THE ABOVE OBSERVATIONS ARE NON NWS ARE NOT QUALITY
       CONTROLLED AND MAY MIS-REPORT RAIN FOR SNOW...
$$

  *****  WEATHER ACROSS NORTHERN MINNESOTA  *****

CITY           SKY/WX    TMP DP  RH WIND       PRES   REMARKS
FLAG ISLAND    CLEAR     -4 -13  65 NW15G21   29.88R WCI -25
WARROAD        FAIR      -4  -9  77 W6        29.90R WCI -16
ROSEAU         CLEAR     -4 -11  71 W8        29.92R WCI -19
HALLOCK        CLEAR     -2 -11  65 W8        29.97S WCI -17
THF RVR FALLS  MOCLDY     0  -8  71 W12       29.96R WCI -18
HALSTAD          N/A      1  -9  62 NW10        N/A  WCI -15
FOSSTON        CLOUDY    -2  -9  71 W16G23    29.97R WCI -23
BAUDETTE       MOCLDY    -3  -9  75 W14       29.86R WCI -22
WASKISH        CLEAR     -2  -9  71 W10       29.90R WCI -19
CROOKSTON      CLEAR      1  -8  66 NW15      30.02R WCI -18
$$
  *****  WEATHER ACROSS CENTRAL AND WEST MINNESOTA  *****

CITY           SKY/WX    TMP DP  RH WIND       PRES   REMARKS
BEMIDJI        PTCLDY    -2  -9  73 W14       29.92R WCI -22
PARK RAPIDS    CLOUDY     1  -7  68 NW17      29.92R WCI -19
WADENA         PTCLDY     0  -8  71 NW9       29.96R WCI -16
DETROIT LAKES  CLEAR      1  -6  71 NW18G25   29.99R WCI -19
MOORHEAD       CLEAR      3  -6  66 NW14      30.07R WCI -15
FERGUS FALLS   CLEAR      1  -8  66 NW14      30.08R WCI -17
ELBOW LAKE     FAIR       2  -6  69 NW18      30.02S WCI -19
MORRIS MN      CLEAR      1  -6  71 NW13      30.04R WCI -16
STAPLES        CLEAR      0  -8  71 W15       29.96R WCI -20
WHEATON        CLEAR      0  -8  71 W12       30.09R WCI -18
$$
  *****  WEATHER ELSEWHERE ACROSS MINNESOTA  *****

CITY           SKY/WX    TMP DP  RH WIND       PRES   REMARKS
DULUTH         CLEAR      5  -5  63 W14       29.79R WCI -12
INTRNTL FALLS  MOCLDY    -1  -9  68 W9G21     29.83R WCI -16
ELY            FAIR       1  -6  71 W10       29.77R WCI -14
CLOQUET        CLEAR      3  -6  66 W15G23    29.85R WCI -15
BRAINERD       PTCLDY     3  -4  72 W13       29.93R WCI -14
HIBBING        CLEAR      2 -10  57 W15G21    29.83R WCI -17
ALEXANDRIA     CLEAR      1  -7  68 NW17G26   29.98S WCI -19
SAINT CLOUD    PTCLDY     6  -4  63 W17       29.98R WCI -13
MINNEAPOLIS    CLEAR      9  -2  61 NW18G26   29.99R WCI -10
$$

  *****  WEATHER ACROSS SOUTH DAKOTA  *****

CITY           SKY/WX    TMP DP  RH WIND       PRES   REMARKS
SIOUX FALLS    MOCLDY     7   0  73 NW7       30.08R WCI  -5
BROOKINGS      NOT AVBL
WATERTOWN      CLEAR      2  -6  69 NW7       30.04R WCI -11
HURON          CLEAR     -1  -6  79 NW5       30.11R WCI -11
SISSETON         N/A      3  -6  66 NW16      30.06S WCI -16
ABERDEEN       PTCLDY     3  -6  66 NW7       30.10R WCI  -9
MITCHELL       PTCLDY     9   2  73 NW7       30.12R WCI  -2
PIERRE         CLEAR      5  -4  66 NW8       30.09R WCI  -8
MOBRIDGE       CLEAR      4  -2  76 NW3       30.04R
RAPID CITY     CLEAR      3  -5  69 W5        30.04R WCI  -6
$$

  *****  SOME WEATHER IN NEARBY STATES *****

CITY           SKY/WX    TMP DP  RH WIND       PRES   REMARKS
GLASGOW MT     PTCLDY     7  -4  60 NW14      30.08R WCI -10
GREAT FALLS MT PTCLDY     7  -5  57 W3        30.11R
CHEYENNE WY    CLOUDY     8   3  80 N7        29.88R WCI  -3
SCOTTSBLUFF NE CLOUDY    17   9  70 NW8       30.02R WCI   7
OMAHA NE       MOCLDY    19   8  62 N13       30.11R WCI   6
DES MOINES IA  MOCLDY    20  10  65 N15       30.05R WCI   6
DAVENPORT IA   CLOUDY    26  19  74 NW16      29.93R WCI  14
CHICAGO IL     CLOUDY    31  23  72 W10       29.85R WCI  22
EAU CLAIRE WI  CLEAR     13   2  61 NW16G25   29.90R WCI  -3
LA CROSSE WI   CLEAR     18   8  65 NW17G23   29.93R WCI   3
$$

  *****  SOME NATIONAL WEATHER *****

CITY           SKY/WX    TMP DP  RH WIND       PRES   REMARKS
LA GUARDIA NY  LGT RAIN  36  32  87 S13       29.84F
RALEIGH NC     LGT RAIN  37  36  93 SW8       30.10S VSB 1/2
ATLANTA GA     FOG       50  48  93 SE5       30.10F VSB<1/4
NEW ORLEANS LA PTCLDY    69  65  86 SE9       30.01S
OKLAHOMA CITY  CLOUDY    50  40  68 N8        29.87R
ALBUQUERQUE NM PTCLDY    46  19  34 NW10      29.85R
SALT LAKE CITY MOCLDY    32  27  81 SE5       29.99R
LOS ANGELES CA PTCLDY    57  48  72 W12       29.93R
BOISE ID       CLEAR     34  14  43 NW6       30.05R
SEATTLE WA     CLEAR     44  18  35 N6        30.22F
$$

*** WEATHER ACROSS MANITOBA...SASKATCHEWAN AND ONTARIO ***
                ***ONTARIO***

CITY           SKY/WX    TMP DP  RH WIND       PRES   REMARKS
GERALDTON      FLURRIES   5  -2  72 W14G24    29.47R WCI -12
THUNDER BAY    PTCLDY     9  -4  56 W16G28    29.69R WCI  -9
SIOUX LOOKOUT  CLEAR     -6 -15  65 NW12G20   29.71R WCI -24
TORONTO        CLOUDY    34  28  80 W18G29    29.61R WCI  23
BIG TROUT LK   LGT SNOW  -4  -9  77 N13G23    29.56R WCI -23
PICKLE LAKE    NOT AVBL
DRYDEN         PTCLDY    -6 -15  65 NW13G23   29.74R WCI -25
KENORA         PTCLDY    -8 -15  71 NW8       29.81R WCI -23
$$
                *** MANITOBA***

CITY           SKY/WX    TMP DP  RH WIND       PRES   REMARKS
BRANDON        CLEAR     -9 -18  64 W15       29.97R WCI -31
DAUPHIN        LGT SNOW  -8 -13  77 N10       30.03R WCI -26
ISLAND LAKE    FLURRIES  -8 -15  71 N9G18     29.78  WCI -25
PILOT MOUND      N/A     -6 -13  71 NW15        N/A  WCI -27
THE PAS        PTCLDY    -9 -17  70 NW13      30.04R WCI -30
THOMPSON       CLEAR     -9 -18  64 N12G21    30.01R WCI -29
WINNIPEG       PTCLDY    -9 -17  70 W9        29.98R WCI -27
LYNN LAKE      CLEAR    -13 -20  70 N12       30.08R WCI -33
CHURCHILL      CRYSTALS -15 -20  76 NW14G21   30.05F WCI -38
GILLAM         CLEAR    -15 -20  76 N12       29.96R WCI -36
$$
                ***SASKATCHEWAN***

CITY           SKY/WX    TMP DP  RH WIND       PRES   REMARKS
ESTEVAN        PTCLDY    -4 -13  65 NW13      30.01R WCI -23
KINDERSLEY     PTCLDY    -4 -13  65 NW12      30.13  WCI -22
LLOYDMINSTER   CLEAR     -8 -18  59 N6        30.17R WCI -21
PRINCE ALBERT  CLEAR    -13 -24  58 NW6       30.18R WCI -27
REGINA         CLEAR     -9 -15  77 NW10      30.07R WCI -28


USA.gov is the U.S. government's official web portal to all federal, state and local government web resources and services.